Location: Cactus School
(34.5700°N, 118.0931°W)
Time: 00:20:58
(UTC-07:00)

Transit 4A - Pass Details

Date: 13 April 2024
Orbit: 871 x 971 km, 66.8° (Epoch: 17 May)

Event Time Altitude Azimuth Distance (km) Brightness Sun altitude
Rises 15:36:19 0° 232° (SW) 3,557 11.7 45.0°
Reaches altitude 10° 15:39:08 10° 243° (WSW) 2,600 11.3 44.5°
Maximum altitude 15:44:26 32° 304° (NW) 1,511 9.8 43.5°
Drops below altitude 10° 15:49:40 10° 6° (N) 2,554 10.1 42.5°
Sets 15:52:26 0° 17° (NNE) 3,485 10.6 42.0°
